Voltar ao catálogo

STARLINK-32827

AtivoComunicaçõesVLEO
NORAD 63043·PAYLOAD·🇺🇸 United States

Lançado Feb 18, 2025 de Cape Canaveral Space Force Station

Loading…

Próximas Passagens (próximas 24 horas)

TLE

AtualizadoSource: CelesTrak SupGP

Época: Sep 14, 2026, 21:05 UTC

1 63043C 25034Q   26257.87895833 -.00049103  00000+0 -14508-2 0  2578
2 63043  53.1574 108.3372 0001306  87.4988   6.3042 15.34413395    15

Acompanhe STARLINK-32827 em tempo real com AllMySat

Download on the App Store